Regional Weather Roundup
Issued by NWS Albany, NY

Home | Current Version | Previous Version | Graphics & Text | Print | Product List | Glossary On
Versions: 1 2 3 4 5 6 7 8 9 10 11 12 13 14 15 16 17 18 19 20 21 22 23 24 25 26 27
000
ASUS41 KALY 222210
RWRALY

NEW YORK STATE HOURLY WEATHER ROUNDUP
NATIONAL WEATHER SERVICE ALBANY NY
500 PM EST WED NOV 22 2017

NOTE: "FAIR" INDICATES FEW OR NO CLOUDS BELOW 12,000 FEET WITH NO
SIGNIFICANT WEATHER AND/OR NO OBSTRUCTIONS TO VISIBILITY.

NYZ032-033-038>043-046>054-057>066-NYZ062>081-082-084-222300-
EAST


CITY           SKY/WX    TMP DP  RH WIND       PRES   REMARKS
ALBANY         CLOUDY    38  30  73 W17       30.00R WCI  28
GLENS FALLS    CLOUDY    38  28  67 W7        29.97R WCI  33
POUGHKEEPSIE   PTCLDY    41  27  57 NW10      29.98R
NEWBURGH       MOCLDY    41  30  65 NW17G25   29.99R
MONTGOMERY     CLOUDY    41  27  57 NW17G23   30.00R
WHITE PLAINS   PTCLDY    41  28  60 NW18G26   29.94R
ISLIP          PTCLDY    45  34  65 NW18      29.91R
NEW YORK CITY  MOCLDY    46  31  55 NW25G32   29.96R
CENTRAL PARK   PTCLDY    44  28  53 NW16G28   30.00R
$$

NYZ005>009-017-018-044>046-055-056-222300-
CENTRAL


CITY           SKY/WX    TMP DP  RH WIND       PRES   REMARKS
FULTON         FLURRIES  34  26  72 W14G26    30.13R WCI  25
SYRACUSE       FLURRIES  32  24  72 W17G24    30.12R WCI  21
ROME           CLOUDY    33  32  96 W9        30.09R WCI  25
ELMIRA         CLOUDY    33  22  63 NW9       30.13R WCI  25
BINGHAMTON     CLOUDY    29  21  72 NW17G30   30.06R WCI  17
MONTICELLO     CLOUDY    33  23  66 NW18G29   30.00R WCI  22
$$

NYZ026>034-041>043-087-222300-
NORTH


CITY           SKY/WX    TMP DP  RH WIND       PRES   REMARKS
WATERTOWN      CLOUDY    32  27  81 N6        30.12R WCI  26
FORT DRUM      NOT AVBL
OGDENSBURG     CLOUDY    28  21  74 NW10      30.12R WCI  19
MASSENA        CLOUDY    30  22  72 NW14      30.11R WCI  19
SARANAC LAKE   CLOUDY    27  24  89 VRB7      29.97R WCI  19
PLATTSBURGH    CLOUDY    36  27  69 NW8       30.01R WCI  30
$$

NYZ001>004-010>016-019>021-085-222300-
WEST


CITY           SKY/WX    TMP DP  RH WIND       PRES   REMARKS
NIAGARA FALLS  CLOUDY    32  17  54 W12       30.21R WCI  23
BUFFALO        CLOUDY    30  18  60 W15G22    30.20R WCI  19
DUNKIRK        CLOUDY    33  20  58 NW12      30.22R WCI  24
JAMESTOWN      FLURRIES  27  21  78 NW9       30.16R WCI  18
WELLSVILLE     CLOUDY    29  19  66 NW16G25   30.12R WCI  17
ROCHESTER      CLOUDY    32  23  69 NW14      30.18R WCI  22
PENN YAN       CLOUDY    31  21  66 NW8G18    30.15R WCI  23
$$

             KEY
       WCI = WIND CHILL INDEX
       VSB = VISIBILITY
       HX  = HEAT INDEX
$$




USA.gov is the U.S. government's official web portal to all federal, state and local government web resources and services.